Location: Prairie State College
(41.5244°N, 87.6382°W)
Time: 19:19:21
(UTC-05:00)

ISS - All Passes

Search period start: 22 March 2017 00:00
Search period end: 01 April 2017 00:00
Orbit: 399 x 409 km, 51.6° (Epoch: 23 March)

Date Brightness Start Highest point End Pass type
(mag) Time Alt. Az. Time Alt. Az. Time Alt. Az.
22 Mar - 00:37:34 10° WNW 00:40:16 23° NNW 00:42:58 10° NE night (unlit)
22 Mar - 02:15:46 10° NW 02:17:38 14° N 02:19:30 10° NE night (unlit)
22 Mar - 03:52:14 10° NW 03:54:59 24° NNE 03:57:44 10° ENE visible
22 Mar - 05:28:25 10° WNW 05:31:42 64° SW 05:34:58 10° SE visible
22 Mar - 22:08:18 10° SSW 22:11:18 34° SE 22:14:19 10° ENE night (unlit)
22 Mar - 23:44:47 10° W 23:47:47 32° NNW 23:50:48 10° NE night (unlit)
23 Mar - 01:23:04 10° NW 01:25:01 15° N 01:26:59 10° NNE night (unlit)
23 Mar - 03:00:04 10° NNW 03:02:27 18° NNE 03:04:51 10° ENE night (unlit)
23 Mar - 04:36:06 10° NW 04:39:24 68° NNE 04:42:41 10° ESE visible
23 Mar - 06:13:41 10° W 06:15:30 14° SW 06:17:20 10° SSW visible
23 Mar - 21:16:49 10° S 21:19:09 18° SE 21:21:29 10° E night (unlit)
23 Mar - 22:52:10 10° WSW 22:55:21 52° NNW 22:58:35 10° NE night (unlit)
24 Mar - 00:30:11 10° NW 00:32:24 17° NNW 00:34:38 10° NNE night (unlit)
24 Mar - 02:07:47 10° NNW 02:09:51 15° N 02:11:56 10° NE night (unlit)
24 Mar - 03:43:52 10° NW 03:47:00 39° NNE 03:50:08 10° E visible
24 Mar - 05:20:33 10° WNW 05:23:23 26° SW 05:26:12 10° SSE visible
24 Mar - 21:59:44 10° SW 22:03:00 86° SE 22:06:17 10° NE night (unlit)
24 Mar - 23:37:15 10° WNW 23:39:49 21° NNW 23:42:24 10° NNE night (unlit)
25 Mar - 01:15:21 10° NNW 01:17:13 14° N 01:19:06 10° NE night (unlit)
25 Mar - 02:51:40 10° NW 02:54:32 26° NNE 02:57:23 10° E night (unlit)
25 Mar - 04:27:56 10° WNW 04:31:09 50° SW 04:34:22 10° SE visible
25 Mar - 21:07:37 10° SSW 21:10:42 43° SE 21:13:50 10° ENE visible
25 Mar - 22:44:24 10° W 22:47:17 28° NNW 22:50:11 10° NE night (unlit)
26 Mar - 00:22:40 10° NW 00:24:34 14° N 00:26:28 10° NNE night (unlit)
26 Mar - 01:59:28 10° NNW 02:01:59 20° NNE 02:04:29 10° ENE night (unlit)
26 Mar - 03:35:32 10° NW 03:38:51 84° NE 03:42:09 10° SE night (unlit)
26 Mar - 05:13:48 10° WSW 05:14:51 11° SW 05:15:54 10° SSW night (unlit)
26 Mar - 20:15:52 10° S 20:18:29 23° SE 20:21:08 10° E visible
26 Mar - 21:51:39 10° WSW 21:54:48 43° NNW 21:57:57 10° NE visible
26 Mar - 23:29:48 10° NW 23:31:54 16° N 23:34:01 10° NNE night (unlit)
27 Mar - 01:07:11 10° NNW 01:09:21 16° N 01:11:32 10° NE night (unlit)
27 Mar - 02:43:14 10° NW 02:46:27 46° NNE 02:49:38 10° ESE night (unlit)
27 Mar - 04:20:08 10° W 04:22:42 21° SW 04:25:17 10° S night (unlit)
27 Mar - 19:25:01 10° SSE 19:26:21 12° SE 19:27:39 10° ESE daylight
27 Mar - 20:59:07 10° WSW 21:02:22 77° NW 21:05:39 10° NE visible
27 Mar - 22:36:50 10° WNW 22:39:16 19° NNW 22:41:43 10° NNE visible
28 Mar - 00:14:47 10° NNW 00:16:42 14° N 00:18:36 10° NE night (unlit)
28 Mar - 01:50:59 10° NW 01:53:57 30° NNE 01:56:54 10° E night (unlit)
28 Mar - 03:27:22 10° WNW 03:30:29 40° SW 03:33:35 10° SSE night (unlit)
28 Mar - 20:06:50 10° SW 20:10:01 55° SE 20:13:14 10° ENE visible
28 Mar - 21:43:54 10° W 21:46:40 25° NNW 21:49:28 10° NE visible
28 Mar - 23:22:09 10° NW 23:23:59 14° N 23:25:51 10° NNE night (unlit)
29 Mar - 00:58:45 10° NW 01:01:23 21° NNE 01:04:00 10° ENE night (unlit)
29 Mar - 02:34:52 10° WNW 02:38:10 79° SW 02:41:26 10° SE night (unlit)
29 Mar - 19:14:54 10° SSW 19:17:44 28° SE 19:20:35 10° ENE daylight
29 Mar - 20:51:04 10° W 20:54:07 36° NNW 20:57:12 10° NE visible
29 Mar - 22:29:18 10° NW 22:31:18 15° N 22:33:18 10° NNE visible
30 Mar - 00:06:28 10° NNW 00:08:44 17° NNE 00:11:01 10° ENE night (unlit)
30 Mar - 01:42:30 10° NW 01:45:45 56° NNE 01:48:59 10° ESE night (unlit)
30 Mar - 03:19:41 10° W 03:21:56 17° SW 03:24:09 10° S night (unlit)
30 Mar - 18:23:35 10° SSE 18:25:31 15° SE 18:27:27 10° E daylight
30 Mar - 19:58:25 10° WSW 20:01:38 62° NNW 20:04:53 10° NE visible
30 Mar - 21:36:17 10° WNW 21:38:36 18° NNW 21:40:55 10° NNE visible
30 Mar - 23:14:04 10° NNW 23:16:03 15° N 23:18:01 10° NE night (unlit)
31 Mar - 00:50:12 10° NW 00:53:14 34° NNE 00:56:17 10° E night (unlit)
31 Mar - 02:26:43 10° WNW 02:29:41 32° SW 02:32:39 10° SSE night (unlit)
31 Mar - 19:06:00 10° SW 19:09:13 69° SE 19:12:29 10° ENE daylight
31 Mar - 20:43:18 10° WNW 20:45:57 22° NNW 20:48:37 10° NE visible
31 Mar - 22:21:28 10° NNW 22:23:19 14° N 22:25:09 10° NE visible
